Index of /20260417/WXO-DD/model_gdps/15km/00/054
Name Last modified Size Description
Parent Directory -
20260417T00Z_MSC_GDPS_AbsoluteVorticity_IsbL-0200_LatLon0.15_PT054H.grib2 2026-04-17 04:09 1.5M
20260417T00Z_MSC_GDPS_AbsoluteVorticity_IsbL-0250_LatLon0.15_PT054H.grib2 2026-04-17 04:09 1.3M
20260417T00Z_MSC_GDPS_AbsoluteVorticity_IsbL-0500_LatLon0.15_PT054H.grib2 2026-04-17 04:09 1.2M
20260417T00Z_MSC_GDPS_AbsoluteVorticity_IsbL-0700_LatLon0.15_PT054H.grib2 2026-04-17 04:09 1.3M
20260417T00Z_MSC_GDPS_AbsoluteVorticity_IsbL-0850_LatLon0.15_PT054H.grib2 2026-04-17 04:09 1.6M
20260417T00Z_MSC_GDPS_AirTemp-Max_AGL-2m_LatLon0.15_PT054H.grib2 2026-04-17 04:09 743K
20260417T00Z_MSC_GDPS_AirTemp-Min_AGL-2m_LatLon0.15_PT054H.grib2 2026-04-17 04:09 906K
20260417T00Z_MSC_GDPS_AirTemp_AGL-120m_LatLon0.15_PT054H.grib2 2026-04-17 04:09 903K
20260417T00Z_MSC_GDPS_AirTemp_AGL-2m_LatLon0.15_PT054H.grib2 2026-04-17 04:09 1.0M
20260417T00Z_MSC_GDPS_AirTemp_AGL-40m_LatLon0.15_PT054H.grib2 2026-04-17 04:09 923K
20260417T00Z_MSC_GDPS_AirTemp_AGL-80m_LatLon0.15_PT054H.grib2 2026-04-17 04:09 912K
20260417T00Z_MSC_GDPS_AirTemp_IsbL-0001_LatLon0.15_PT054H.grib2 2026-04-17 04:09 708K
20260417T00Z_MSC_GDPS_AirTemp_IsbL-0005_LatLon0.15_PT054H.grib2 2026-04-17 04:09 687K
20260417T00Z_MSC_GDPS_AirTemp_IsbL-0010_LatLon0.15_PT054H.grib2 2026-04-17 04:09 758K
20260417T00Z_MSC_GDPS_AirTemp_IsbL-0020_LatLon0.15_PT054H.grib2 2026-04-17 04:09 699K
20260417T00Z_MSC_GDPS_AirTemp_IsbL-0030_LatLon0.15_PT054H.grib2 2026-04-17 04:09 750K
20260417T00Z_MSC_GDPS_AirTemp_IsbL-0050_LatLon0.15_PT054H.grib2 2026-04-17 04:09 814K
20260417T00Z_MSC_GDPS_AirTemp_IsbL-0100_LatLon0.15_PT054H.grib2 2026-04-17 04:09 949K
20260417T00Z_MSC_GDPS_AirTemp_IsbL-0150_LatLon0.15_PT054H.grib2 2026-04-17 04:09 1.0M
20260417T00Z_MSC_GDPS_AirTemp_IsbL-0175_LatLon0.15_PT054H.grib2 2026-04-17 04:09 963K
20260417T00Z_MSC_GDPS_AirTemp_IsbL-0200_LatLon0.15_PT054H.grib2 2026-04-17 04:09 971K
20260417T00Z_MSC_GDPS_AirTemp_IsbL-0225_LatLon0.15_PT054H.grib2 2026-04-17 04:09 970K
20260417T00Z_MSC_GDPS_AirTemp_IsbL-0250_LatLon0.15_PT054H.grib2 2026-04-17 04:09 1.0M
20260417T00Z_MSC_GDPS_AirTemp_IsbL-0275_LatLon0.15_PT054H.grib2 2026-04-17 04:09 1.0M
20260417T00Z_MSC_GDPS_AirTemp_IsbL-0300_LatLon0.15_PT054H.grib2 2026-04-17 04:09 1.0M
20260417T00Z_MSC_GDPS_AirTemp_IsbL-0350_LatLon0.15_PT054H.grib2 2026-04-17 04:09 921K
20260417T00Z_MSC_GDPS_AirTemp_IsbL-0400_LatLon0.15_PT054H.grib2 2026-04-17 04:09 935K
20260417T00Z_MSC_GDPS_AirTemp_IsbL-0450_LatLon0.15_PT054H.grib2 2026-04-17 04:09 957K
20260417T00Z_MSC_GDPS_AirTemp_IsbL-0500_LatLon0.15_PT054H.grib2 2026-04-17 04:09 1.0M
20260417T00Z_MSC_GDPS_AirTemp_IsbL-0550_LatLon0.15_PT054H.grib2 2026-04-17 04:09 1.0M
20260417T00Z_MSC_GDPS_AirTemp_IsbL-0600_LatLon0.15_PT054H.grib2 2026-04-17 04:09 891K
20260417T00Z_MSC_GDPS_AirTemp_IsbL-0650_LatLon0.15_PT054H.grib2 2026-04-17 04:09 919K
20260417T00Z_MSC_GDPS_AirTemp_IsbL-0700_LatLon0.15_PT054H.grib2 2026-04-17 04:09 949K
20260417T00Z_MSC_GDPS_AirTemp_IsbL-0750_LatLon0.15_PT054H.grib2 2026-04-17 04:09 1.0M
20260417T00Z_MSC_GDPS_AirTemp_IsbL-0800_LatLon0.15_PT054H.grib2 2026-04-17 04:09 1.1M
20260417T00Z_MSC_GDPS_AirTemp_IsbL-0850_LatLon0.15_PT054H.grib2 2026-04-17 04:09 1.1M
20260417T00Z_MSC_GDPS_AirTemp_IsbL-0875_LatLon0.15_PT054H.grib2 2026-04-17 04:09 1.1M
20260417T00Z_MSC_GDPS_AirTemp_IsbL-0900_LatLon0.15_PT054H.grib2 2026-04-17 04:09 1.1M
20260417T00Z_MSC_GDPS_AirTemp_IsbL-0925_LatLon0.15_PT054H.grib2 2026-04-17 04:09 1.1M
20260417T00Z_MSC_GDPS_AirTemp_IsbL-0950_LatLon0.15_PT054H.grib2 2026-04-17 04:09 1.1M
20260417T00Z_MSC_GDPS_AirTemp_IsbL-0970_LatLon0.15_PT054H.grib2 2026-04-17 04:09 1.1M
20260417T00Z_MSC_GDPS_AirTemp_IsbL-0985_LatLon0.15_PT054H.grib2 2026-04-17 04:09 1.1M
20260417T00Z_MSC_GDPS_AirTemp_IsbL-1000_LatLon0.15_PT054H.grib2 2026-04-17 04:09 1.1M
20260417T00Z_MSC_GDPS_AirTemp_IsbL-1015_LatLon0.15_PT054H.grib2 2026-04-17 04:09 1.1M
20260417T00Z_MSC_GDPS_Albedo_Sfc_LatLon0.15_PT054H.grib2 2026-04-17 04:09 247K
20260417T00Z_MSC_GDPS_CAPE_Sfc_LatLon0.15_PT054H.grib2 2026-04-17 04:09 4.0M
20260417T00Z_MSC_GDPS_CIN_Sfc_LatLon0.15_PT054H.grib2 2026-04-17 04:09 2.9M
20260417T00Z_MSC_GDPS_CloudWater_EAtm_LatLon0.15_PT054H.grib2 2026-04-17 04:09 525K
20260417T00Z_MSC_GDPS_ConvectivePrecip-Accum_Sfc_LatLon0.15_PT054H.grib2 2026-04-17 04:09 2.9M
20260417T00Z_MSC_GDPS_DewPointDepression_AGL-2m_LatLon0.15_PT054H.grib2 2026-04-17 04:09 750K
20260417T00Z_MSC_GDPS_DewPointDepression_IsbL-0010_LatLon0.15_PT054H.grib2 2026-04-17 04:09 5.0K
20260417T00Z_MSC_GDPS_DewPointDepression_IsbL-0020_LatLon0.15_PT054H.grib2 2026-04-17 04:09 61K
20260417T00Z_MSC_GDPS_DewPointDepression_IsbL-0030_LatLon0.15_PT054H.grib2 2026-04-17 04:09 72K
20260417T00Z_MSC_GDPS_DewPointDepression_IsbL-0050_LatLon0.15_PT054H.grib2 2026-04-17 04:09 358K
20260417T00Z_MSC_GDPS_DewPointDepression_IsbL-0100_LatLon0.15_PT054H.grib2 2026-04-17 04:09 386K
20260417T00Z_MSC_GDPS_DewPointDepression_IsbL-0150_LatLon0.15_PT054H.grib2 2026-04-17 04:09 464K
20260417T00Z_MSC_GDPS_DewPointDepression_IsbL-0175_LatLon0.15_PT054H.grib2 2026-04-17 04:09 541K
20260417T00Z_MSC_GDPS_DewPointDepression_IsbL-0200_LatLon0.15_PT054H.grib2 2026-04-17 04:09 611K
20260417T00Z_MSC_GDPS_DewPointDepression_IsbL-0225_LatLon0.15_PT054H.grib2 2026-04-17 04:09 745K
20260417T00Z_MSC_GDPS_DewPointDepression_IsbL-0250_LatLon0.15_PT054H.grib2 2026-04-17 04:09 874K
20260417T00Z_MSC_GDPS_DewPointDepression_IsbL-0275_LatLon0.15_PT054H.grib2 2026-04-17 04:09 891K
20260417T00Z_MSC_GDPS_DewPointDepression_IsbL-0300_LatLon0.15_PT054H.grib2 2026-04-17 04:09 924K
20260417T00Z_MSC_GDPS_DewPointDepression_IsbL-0350_LatLon0.15_PT054H.grib2 2026-04-17 04:09 947K
20260417T00Z_MSC_GDPS_DewPointDepression_IsbL-0400_LatLon0.15_PT054H.grib2 2026-04-17 04:09 1.0M
20260417T00Z_MSC_GDPS_DewPointDepression_IsbL-0450_LatLon0.15_PT054H.grib2 2026-04-17 04:09 1.0M
20260417T00Z_MSC_GDPS_DewPointDepression_IsbL-0500_LatLon0.15_PT054H.grib2 2026-04-17 04:09 1.0M
20260417T00Z_MSC_GDPS_DewPointDepression_IsbL-0550_LatLon0.15_PT054H.grib2 2026-04-17 04:09 1.0M
20260417T00Z_MSC_GDPS_DewPointDepression_IsbL-0600_LatLon0.15_PT054H.grib2 2026-04-17 04:09 1.1M
20260417T00Z_MSC_GDPS_DewPointDepression_IsbL-0650_LatLon0.15_PT054H.grib2 2026-04-17 04:09 1.1M
20260417T00Z_MSC_GDPS_DewPointDepression_IsbL-0700_LatLon0.15_PT054H.grib2 2026-04-17 04:09 1.1M
20260417T00Z_MSC_GDPS_DewPointDepression_IsbL-0750_LatLon0.15_PT054H.grib2 2026-04-17 04:09 1.1M
20260417T00Z_MSC_GDPS_DewPointDepression_IsbL-0800_LatLon0.15_PT054H.grib2 2026-04-17 04:09 1.2M
20260417T00Z_MSC_GDPS_DewPointDepression_IsbL-0850_LatLon0.15_PT054H.grib2 2026-04-17 04:09 1.1M
20260417T00Z_MSC_GDPS_DewPointDepression_IsbL-0875_LatLon0.15_PT054H.grib2 2026-04-17 04:09 1.1M
20260417T00Z_MSC_GDPS_DewPointDepression_IsbL-0900_LatLon0.15_PT054H.grib2 2026-04-17 04:09 1.1M
20260417T00Z_MSC_GDPS_DewPointDepression_IsbL-0925_LatLon0.15_PT054H.grib2 2026-04-17 04:09 1.0M
20260417T00Z_MSC_GDPS_DewPointDepression_IsbL-0950_LatLon0.15_PT054H.grib2 2026-04-17 04:09 1.0M
20260417T00Z_MSC_GDPS_DewPointDepression_IsbL-0970_LatLon0.15_PT054H.grib2 2026-04-17 04:09 1.0M
20260417T00Z_MSC_GDPS_DewPointDepression_IsbL-0985_LatLon0.15_PT054H.grib2 2026-04-17 04:09 1.0M
20260417T00Z_MSC_GDPS_DewPointDepression_IsbL-1000_LatLon0.15_PT054H.grib2 2026-04-17 04:09 963K
20260417T00Z_MSC_GDPS_DewPointDepression_IsbL-1015_LatLon0.15_PT054H.grib2 2026-04-17 04:09 899K
20260417T00Z_MSC_GDPS_DewPoint_AGL-2m_LatLon0.15_PT054H.grib2 2026-04-17 04:09 607K
20260417T00Z_MSC_GDPS_DownwardLongwaveRadiationFlux-Accum_Sfc_LatLon0.15_PT054H.grib2 2026-04-17 04:09 844K
20260417T00Z_MSC_GDPS_DownwardShortwaveRadiationFlux-Accum_NTAtm_LatLon0.15_PT054H.grib2 2026-04-17 04:09 201K
20260417T00Z_MSC_GDPS_DownwardShortwaveRadiationFlux-Accum_Sfc_LatLon0.15_PT054H.grib2 2026-04-17 04:09 1.1M
20260417T00Z_MSC_GDPS_FreezingRain-Accum12h_Sfc_LatLon0.15_PT054H.grib2 2026-04-17 04:09 100K
20260417T00Z_MSC_GDPS_FreezingRain-Accum1h_Sfc_LatLon0.15_PT054H.grib2 2026-04-17 04:09 42K
20260417T00Z_MSC_GDPS_FreezingRain-Accum24h_Sfc_LatLon0.15_PT054H.grib2 2026-04-17 04:09 145K
20260417T00Z_MSC_GDPS_FreezingRain-Accum3h_Sfc_LatLon0.15_PT054H.grib2 2026-04-17 04:09 53K
20260417T00Z_MSC_GDPS_FreezingRain-Accum6h_Sfc_LatLon0.15_PT054H.grib2 2026-04-17 04:09 75K
20260417T00Z_MSC_GDPS_FreezingRain-Accum_Sfc_LatLon0.15_PT054H.grib2 2026-04-17 04:09 252K
20260417T00Z_MSC_GDPS_GeopotentialHeight_IsbL-0001_LatLon0.15_PT054H.grib2 2026-04-17 04:09 381K
20260417T00Z_MSC_GDPS_GeopotentialHeight_IsbL-0005_LatLon0.15_PT054H.grib2 2026-04-17 04:09 497K
20260417T00Z_MSC_GDPS_GeopotentialHeight_IsbL-0010_LatLon0.15_PT054H.grib2 2026-04-17 04:09 433K
20260417T00Z_MSC_GDPS_GeopotentialHeight_IsbL-0020_LatLon0.15_PT054H.grib2 2026-04-17 04:09 574K
20260417T00Z_MSC_GDPS_GeopotentialHeight_IsbL-0030_LatLon0.15_PT054H.grib2 2026-04-17 04:09 575K
20260417T00Z_MSC_GDPS_GeopotentialHeight_IsbL-0050_LatLon0.15_PT054H.grib2 2026-04-17 04:09 579K
20260417T00Z_MSC_GDPS_GeopotentialHeight_IsbL-0100_LatLon0.15_PT054H.grib2 2026-04-17 04:09 613K
20260417T00Z_MSC_GDPS_GeopotentialHeight_IsbL-0150_LatLon0.15_PT054H.grib2 2026-04-17 04:09 629K
20260417T00Z_MSC_GDPS_GeopotentialHeight_IsbL-0175_LatLon0.15_PT054H.grib2 2026-04-17 04:09 633K
20260417T00Z_MSC_GDPS_GeopotentialHeight_IsbL-0200_LatLon0.15_PT054H.grib2 2026-04-17 04:09 637K
20260417T00Z_MSC_GDPS_GeopotentialHeight_IsbL-0225_LatLon0.15_PT054H.grib2 2026-04-17 04:09 639K
20260417T00Z_MSC_GDPS_GeopotentialHeight_IsbL-0250_LatLon0.15_PT054H.grib2 2026-04-17 04:09 641K
20260417T00Z_MSC_GDPS_GeopotentialHeight_IsbL-0275_LatLon0.15_PT054H.grib2 2026-04-17 04:09 641K
20260417T00Z_MSC_GDPS_GeopotentialHeight_IsbL-0300_LatLon0.15_PT054H.grib2 2026-04-17 04:09 632K
20260417T00Z_MSC_GDPS_GeopotentialHeight_IsbL-0350_LatLon0.15_PT054H.grib2 2026-04-17 04:09 627K
20260417T00Z_MSC_GDPS_GeopotentialHeight_IsbL-0400_LatLon0.15_PT054H.grib2 2026-04-17 04:09 619K
20260417T00Z_MSC_GDPS_GeopotentialHeight_IsbL-0450_LatLon0.15_PT054H.grib2 2026-04-17 04:09 539K
20260417T00Z_MSC_GDPS_GeopotentialHeight_IsbL-0500_LatLon0.15_PT054H.grib2 2026-04-17 04:09 529K
20260417T00Z_MSC_GDPS_GeopotentialHeight_IsbL-0550_LatLon0.15_PT054H.grib2 2026-04-17 04:09 689K
20260417T00Z_MSC_GDPS_GeopotentialHeight_IsbL-0600_LatLon0.15_PT054H.grib2 2026-04-17 04:09 684K
20260417T00Z_MSC_GDPS_GeopotentialHeight_IsbL-0650_LatLon0.15_PT054H.grib2 2026-04-17 04:09 682K
20260417T00Z_MSC_GDPS_GeopotentialHeight_IsbL-0700_LatLon0.15_PT054H.grib2 2026-04-17 04:09 678K
20260417T00Z_MSC_GDPS_GeopotentialHeight_IsbL-0750_LatLon0.15_PT054H.grib2 2026-04-17 04:09 688K
20260417T00Z_MSC_GDPS_GeopotentialHeight_IsbL-0800_LatLon0.15_PT054H.grib2 2026-04-17 04:09 632K
20260417T00Z_MSC_GDPS_GeopotentialHeight_IsbL-0850_LatLon0.15_PT054H.grib2 2026-04-17 04:09 642K
20260417T00Z_MSC_GDPS_GeopotentialHeight_IsbL-0875_LatLon0.15_PT054H.grib2 2026-04-17 04:09 647K
20260417T00Z_MSC_GDPS_GeopotentialHeight_IsbL-0900_LatLon0.15_PT054H.grib2 2026-04-17 04:09 655K
20260417T00Z_MSC_GDPS_GeopotentialHeight_IsbL-0925_LatLon0.15_PT054H.grib2 2026-04-17 04:09 663K
20260417T00Z_MSC_GDPS_GeopotentialHeight_IsbL-0950_LatLon0.15_PT054H.grib2 2026-04-17 04:09 733K
20260417T00Z_MSC_GDPS_GeopotentialHeight_IsbL-0970_LatLon0.15_PT054H.grib2 2026-04-17 04:09 744K
20260417T00Z_MSC_GDPS_GeopotentialHeight_IsbL-0985_LatLon0.15_PT054H.grib2 2026-04-17 04:09 762K
20260417T00Z_MSC_GDPS_GeopotentialHeight_IsbL-1000_LatLon0.15_PT054H.grib2 2026-04-17 04:09 784K
20260417T00Z_MSC_GDPS_GeopotentialHeight_IsbL-1015_LatLon0.15_PT054H.grib2 2026-04-17 04:09 807K
20260417T00Z_MSC_GDPS_Humidex_Sfc_LatLon0.15_PT054H.grib2 2026-04-17 04:09 5.3M
20260417T00Z_MSC_GDPS_IcePellets-Accum12h_Sfc_LatLon0.15_PT054H.grib2 2026-04-17 04:09 59K
20260417T00Z_MSC_GDPS_IcePellets-Accum1h_Sfc_LatLon0.15_PT054H.grib2 2026-04-17 04:09 19K
20260417T00Z_MSC_GDPS_IcePellets-Accum24h_Sfc_LatLon0.15_PT054H.grib2 2026-04-17 04:09 82K
20260417T00Z_MSC_GDPS_IcePellets-Accum3h_Sfc_LatLon0.15_PT054H.grib2 2026-04-17 04:09 26K
20260417T00Z_MSC_GDPS_IcePellets-Accum6h_Sfc_LatLon0.15_PT054H.grib2 2026-04-17 04:09 42K
20260417T00Z_MSC_GDPS_IcePellets-Accum_Sfc_LatLon0.15_PT054H.grib2 2026-04-17 04:09 112K
20260417T00Z_MSC_GDPS_KIndex_Sfc_LatLon0.15_PT054H.grib2 2026-04-17 04:09 6.5M
20260417T00Z_MSC_GDPS_LatentHeatNetFlux_Sfc_LatLon0.15_PT054H.grib2 2026-04-17 04:09 693K
20260417T00Z_MSC_GDPS_LiftedIndex-MU-VT_IsbL-0500_LatLon0.15_PT054H.grib2 2026-04-17 04:09 5.4M
20260417T00Z_MSC_GDPS_NetLongwaveRadiationFlux-Accum_Sfc_LatLon0.15_PT054H.grib2 2026-04-17 04:09 1.2M
20260417T00Z_MSC_GDPS_NetShortwaveRadiationFlux-Accum_Sfc_LatLon0.15_PT054H.grib2 2026-04-17 04:09 1.0M
20260417T00Z_MSC_GDPS_O3MixingRatio_LatLon0.15_PT054H.grib2 2026-04-17 04:50 2.3M
20260417T00Z_MSC_GDPS_O3_EAtm_LatLon0.15_PT054H.grib2 2026-04-17 04:50 2.1M
20260417T00Z_MSC_GDPS_PlanetaryBoundaryLayerHeight_Sfc_LatLon0.15_PT054H.grib2 2026-04-17 04:09 2.4M
20260417T00Z_MSC_GDPS_Precip-Accum12h_Sfc_LatLon0.15_PT054H.grib2 2026-04-17 04:09 4.0M
20260417T00Z_MSC_GDPS_Precip-Accum1h_Sfc_LatLon0.15_PT054H.grib2 2026-04-17 04:09 3.2M
20260417T00Z_MSC_GDPS_Precip-Accum24h_Sfc_LatLon0.15_PT054H.grib2 2026-04-17 04:09 4.5M
20260417T00Z_MSC_GDPS_Precip-Accum3h_Sfc_LatLon0.15_PT054H.grib2 2026-04-17 04:09 3.4M
20260417T00Z_MSC_GDPS_Precip-Accum6h_Sfc_LatLon0.15_PT054H.grib2 2026-04-17 04:09 3.5M
20260417T00Z_MSC_GDPS_Precip-Accum_Sfc_LatLon0.15_PT054H.grib2 2026-04-17 04:09 5.0M
20260417T00Z_MSC_GDPS_PrecipRate_Sfc_LatLon0.15_PT054H.grib2 2026-04-17 04:09 3.1M
20260417T00Z_MSC_GDPS_PrecipType-Instant_Sfc_LatLon0.15_PT054H.grib2 2026-04-17 04:09 1.5M
20260417T00Z_MSC_GDPS_Pressure_MSL_LatLon0.15_PT054H.grib2 2026-04-17 04:09 716K
20260417T00Z_MSC_GDPS_Pressure_PVU-1.5_LatLon0.15_PT054H.grib2 2026-04-17 04:09 5.8M
20260417T00Z_MSC_GDPS_Pressure_PVU-1_LatLon0.15_PT054H.grib2 2026-04-17 04:09 6.0M
20260417T00Z_MSC_GDPS_Pressure_PVU-2_LatLon0.15_PT054H.grib2 2026-04-17 04:09 5.6M
20260417T00Z_MSC_GDPS_Pressure_Sfc_LatLon0.15_PT054H.grib2 2026-04-17 04:09 1.1M
20260417T00Z_MSC_GDPS_RadiativeTemp_Sfc_LatLon0.15_PT054H.grib2 2026-04-17 04:09 671K
20260417T00Z_MSC_GDPS_Rain-Accum12h_Sfc_LatLon0.15_PT054H.grib2 2026-04-17 04:09 2.5M
20260417T00Z_MSC_GDPS_Rain-Accum1h_Sfc_LatLon0.15_PT054H.grib2 2026-04-17 04:09 1.6M
20260417T00Z_MSC_GDPS_Rain-Accum24h_Sfc_LatLon0.15_PT054H.grib2 2026-04-17 04:09 3.1M
20260417T00Z_MSC_GDPS_Rain-Accum3h_Sfc_LatLon0.15_PT054H.grib2 2026-04-17 04:09 1.7M
20260417T00Z_MSC_GDPS_Rain-Accum6h_Sfc_LatLon0.15_PT054H.grib2 2026-04-17 04:09 2.2M
20260417T00Z_MSC_GDPS_Rain-Accum_Sfc_LatLon0.15_PT054H.grib2 2026-04-17 04:09 3.7M
20260417T00Z_MSC_GDPS_RelativeHumidity_AGL-2m_LatLon0.15_PT054H.grib2 2026-04-17 04:09 1.1M
20260417T00Z_MSC_GDPS_RelativeHumidity_IsbL-0010_LatLon0.15_PT054H.grib2 2026-04-17 04:09 245K
20260417T00Z_MSC_GDPS_RelativeHumidity_IsbL-0020_LatLon0.15_PT054H.grib2 2026-04-17 04:09 386K
20260417T00Z_MSC_GDPS_RelativeHumidity_IsbL-0030_LatLon0.15_PT054H.grib2 2026-04-17 04:09 384K
20260417T00Z_MSC_GDPS_RelativeHumidity_IsbL-0050_LatLon0.15_PT054H.grib2 2026-04-17 04:09 414K
20260417T00Z_MSC_GDPS_RelativeHumidity_IsbL-0100_LatLon0.15_PT054H.grib2 2026-04-17 04:09 491K
20260417T00Z_MSC_GDPS_RelativeHumidity_IsbL-0150_LatLon0.15_PT054H.grib2 2026-04-17 04:09 659K
20260417T00Z_MSC_GDPS_RelativeHumidity_IsbL-0175_LatLon0.15_PT054H.grib2 2026-04-17 04:09 789K
20260417T00Z_MSC_GDPS_RelativeHumidity_IsbL-0200_LatLon0.15_PT054H.grib2 2026-04-17 04:09 689K
20260417T00Z_MSC_GDPS_RelativeHumidity_IsbL-0225_LatLon0.15_PT054H.grib2 2026-04-17 04:09 769K
20260417T00Z_MSC_GDPS_RelativeHumidity_IsbL-0250_LatLon0.15_PT054H.grib2 2026-04-17 04:09 865K
20260417T00Z_MSC_GDPS_RelativeHumidity_IsbL-0275_LatLon0.15_PT054H.grib2 2026-04-17 04:09 893K
20260417T00Z_MSC_GDPS_RelativeHumidity_IsbL-0300_LatLon0.15_PT054H.grib2 2026-04-17 04:09 934K
20260417T00Z_MSC_GDPS_RelativeHumidity_IsbL-0350_LatLon0.15_PT054H.grib2 2026-04-17 04:09 949K
20260417T00Z_MSC_GDPS_RelativeHumidity_IsbL-0400_LatLon0.15_PT054H.grib2 2026-04-17 04:09 1.0M
20260417T00Z_MSC_GDPS_RelativeHumidity_IsbL-0450_LatLon0.15_PT054H.grib2 2026-04-17 04:09 1.0M
20260417T00Z_MSC_GDPS_RelativeHumidity_IsbL-0500_LatLon0.15_PT054H.grib2 2026-04-17 04:09 1.0M
20260417T00Z_MSC_GDPS_RelativeHumidity_IsbL-0550_LatLon0.15_PT054H.grib2 2026-04-17 04:09 1.0M
20260417T00Z_MSC_GDPS_RelativeHumidity_IsbL-0600_LatLon0.15_PT054H.grib2 2026-04-17 04:09 1.0M
20260417T00Z_MSC_GDPS_RelativeHumidity_IsbL-0650_LatLon0.15_PT054H.grib2 2026-04-17 04:09 1.1M
20260417T00Z_MSC_GDPS_RelativeHumidity_IsbL-0700_LatLon0.15_PT054H.grib2 2026-04-17 04:09 1.1M
20260417T00Z_MSC_GDPS_RelativeHumidity_IsbL-0750_LatLon0.15_PT054H.grib2 2026-04-17 04:09 1.2M
20260417T00Z_MSC_GDPS_RelativeHumidity_IsbL-0800_LatLon0.15_PT054H.grib2 2026-04-17 04:09 1.2M
20260417T00Z_MSC_GDPS_RelativeHumidity_IsbL-0850_LatLon0.15_PT054H.grib2 2026-04-17 04:09 1.3M
20260417T00Z_MSC_GDPS_RelativeHumidity_IsbL-0875_LatLon0.15_PT054H.grib2 2026-04-17 04:09 1.2M
20260417T00Z_MSC_GDPS_RelativeHumidity_IsbL-0900_LatLon0.15_PT054H.grib2 2026-04-17 04:09 1.2M
20260417T00Z_MSC_GDPS_RelativeHumidity_IsbL-0925_LatLon0.15_PT054H.grib2 2026-04-17 04:09 1.2M
20260417T00Z_MSC_GDPS_RelativeHumidity_IsbL-0950_LatLon0.15_PT054H.grib2 2026-04-17 04:09 1.2M
20260417T00Z_MSC_GDPS_RelativeHumidity_IsbL-0970_LatLon0.15_PT054H.grib2 2026-04-17 04:09 1.2M
20260417T00Z_MSC_GDPS_RelativeHumidity_IsbL-0985_LatLon0.15_PT054H.grib2 2026-04-17 04:09 1.1M
20260417T00Z_MSC_GDPS_RelativeHumidity_IsbL-1000_LatLon0.15_PT054H.grib2 2026-04-17 04:09 1.1M
20260417T00Z_MSC_GDPS_RelativeHumidity_IsbL-1015_LatLon0.15_PT054H.grib2 2026-04-17 04:09 1.0M
20260417T00Z_MSC_GDPS_RelativeVorticity_IsbL-0200_LatLon0.15_PT054H.grib2 2026-04-17 04:09 1.5M
20260417T00Z_MSC_GDPS_RelativeVorticity_IsbL-0250_LatLon0.15_PT054H.grib2 2026-04-17 04:09 1.3M
20260417T00Z_MSC_GDPS_RelativeVorticity_IsbL-0500_LatLon0.15_PT054H.grib2 2026-04-17 04:09 1.2M
20260417T00Z_MSC_GDPS_RelativeVorticity_IsbL-0700_LatLon0.15_PT054H.grib2 2026-04-17 04:09 1.6M
20260417T00Z_MSC_GDPS_RelativeVorticity_IsbL-0850_LatLon0.15_PT054H.grib2 2026-04-17 04:09 1.6M
20260417T00Z_MSC_GDPS_Runoff-Accum_Sfc_LatLon0.15_PT054H.grib2 2026-04-17 04:09 110K
20260417T00Z_MSC_GDPS_SensibleHeatNetFlux_Sfc_LatLon0.15_PT054H.grib2 2026-04-17 04:09 631K
20260417T00Z_MSC_GDPS_ShowalterIndex_IsbL-0500_LatLon0.15_PT054H.grib2 2026-04-17 04:09 6.2M
20260417T00Z_MSC_GDPS_Snow-Accum12h_Sfc_LatLon0.15_PT054H.grib2 2026-04-17 04:09 1.5M
20260417T00Z_MSC_GDPS_Snow-Accum1h_Sfc_LatLon0.15_PT054H.grib2 2026-04-17 04:09 1.1M
20260417T00Z_MSC_GDPS_Snow-Accum24h_Sfc_LatLon0.15_PT054H.grib2 2026-04-17 04:09 1.7M
20260417T00Z_MSC_GDPS_Snow-Accum3h_Sfc_LatLon0.15_PT054H.grib2 2026-04-17 04:09 969K
20260417T00Z_MSC_GDPS_Snow-Accum6h_Sfc_LatLon0.15_PT054H.grib2 2026-04-17 04:09 1.3M
20260417T00Z_MSC_GDPS_Snow-Accum_Sfc_LatLon0.15_PT054H.grib2 2026-04-17 04:09 2.0M
20260417T00Z_MSC_GDPS_SnowDensity_Sfc_LatLon0.15_PT054H.grib2 2026-04-17 04:09 268K
20260417T00Z_MSC_GDPS_SnowDepth_Sfc_LatLon0.15_PT054H.grib2 2026-04-17 04:09 1.8M
20260417T00Z_MSC_GDPS_SoilTemp_DBS-0to10cm_LatLon0.15_PT054H.grib2 2026-04-17 04:09 501K
20260417T00Z_MSC_GDPS_SoilTemp_Sfc_LatLon0.15_PT054H.grib2 2026-04-17 04:09 578K
20260417T00Z_MSC_GDPS_SoilVolumetricIceContent_Sfc_LatLon0.15_PT054H.grib2 2026-04-17 04:09 222K
20260417T00Z_MSC_GDPS_SoilVolumetricWaterContent_DBS-0to10cm_LatLon0.15_PT054H.grib2 2026-04-17 04:09 554K
20260417T00Z_MSC_GDPS_SoilVolumetricWaterContent_DBS-0to1cm_LatLon0.15_PT054H.grib2 2026-04-17 04:09 650K
20260417T00Z_MSC_GDPS_SpecificHumidity_AGL-120m_LatLon0.15_PT054H.grib2 2026-04-17 04:09 1.1M
20260417T00Z_MSC_GDPS_SpecificHumidity_AGL-2m_LatLon0.15_PT054H.grib2 2026-04-17 04:09 1.2M
20260417T00Z_MSC_GDPS_SpecificHumidity_AGL-40m_LatLon0.15_PT054H.grib2 2026-04-17 04:09 1.1M
20260417T00Z_MSC_GDPS_SpecificHumidity_AGL-80m_LatLon0.15_PT054H.grib2 2026-04-17 04:09 1.1M
20260417T00Z_MSC_GDPS_SpecificHumidity_IsbL-0001_LatLon0.15_PT054H.grib2 2026-04-17 04:09 1.2M
20260417T00Z_MSC_GDPS_SpecificHumidity_IsbL-0005_LatLon0.15_PT054H.grib2 2026-04-17 04:09 1.2M
20260417T00Z_MSC_GDPS_SpecificHumidity_IsbL-0010_LatLon0.15_PT054H.grib2 2026-04-17 04:09 1.3M
20260417T00Z_MSC_GDPS_SpecificHumidity_IsbL-0020_LatLon0.15_PT054H.grib2 2026-04-17 04:09 1.4M
20260417T00Z_MSC_GDPS_SpecificHumidity_IsbL-0030_LatLon0.15_PT054H.grib2 2026-04-17 04:09 1.3M
20260417T00Z_MSC_GDPS_SpecificHumidity_IsbL-0050_LatLon0.15_PT054H.grib2 2026-04-17 04:09 1.3M
20260417T00Z_MSC_GDPS_SpecificHumidity_IsbL-0100_LatLon0.15_PT054H.grib2 2026-04-17 04:09 1.3M
20260417T00Z_MSC_GDPS_SpecificHumidity_IsbL-0150_LatLon0.15_PT054H.grib2 2026-04-17 04:09 1.4M
20260417T00Z_MSC_GDPS_SpecificHumidity_IsbL-0175_LatLon0.15_PT054H.grib2 2026-04-17 04:09 1.3M
20260417T00Z_MSC_GDPS_SpecificHumidity_IsbL-0200_LatLon0.15_PT054H.grib2 2026-04-17 04:09 1.3M
20260417T00Z_MSC_GDPS_SpecificHumidity_IsbL-0225_LatLon0.15_PT054H.grib2 2026-04-17 04:09 1.3M
20260417T00Z_MSC_GDPS_SpecificHumidity_IsbL-0250_LatLon0.15_PT054H.grib2 2026-04-17 04:09 1.4M
20260417T00Z_MSC_GDPS_SpecificHumidity_IsbL-0275_LatLon0.15_PT054H.grib2 2026-04-17 04:09 1.3M
20260417T00Z_MSC_GDPS_SpecificHumidity_IsbL-0300_LatLon0.15_PT054H.grib2 2026-04-17 04:09 1.2M
20260417T00Z_MSC_GDPS_SpecificHumidity_IsbL-0350_LatLon0.15_PT054H.grib2 2026-04-17 04:09 1.2M
20260417T00Z_MSC_GDPS_SpecificHumidity_IsbL-0400_LatLon0.15_PT054H.grib2 2026-04-17 04:09 1.5M
20260417T00Z_MSC_GDPS_SpecificHumidity_IsbL-0450_LatLon0.15_PT054H.grib2 2026-04-17 04:09 1.3M
20260417T00Z_MSC_GDPS_SpecificHumidity_IsbL-0500_LatLon0.15_PT054H.grib2 2026-04-17 04:09 1.4M
20260417T00Z_MSC_GDPS_SpecificHumidity_IsbL-0550_LatLon0.15_PT054H.grib2 2026-04-17 04:09 1.6M
20260417T00Z_MSC_GDPS_SpecificHumidity_IsbL-0600_LatLon0.15_PT054H.grib2 2026-04-17 04:09 1.4M
20260417T00Z_MSC_GDPS_SpecificHumidity_IsbL-0650_LatLon0.15_PT054H.grib2 2026-04-17 04:09 1.5M
20260417T00Z_MSC_GDPS_SpecificHumidity_IsbL-0700_LatLon0.15_PT054H.grib2 2026-04-17 04:09 1.6M
20260417T00Z_MSC_GDPS_SpecificHumidity_IsbL-0750_LatLon0.15_PT054H.grib2 2026-04-17 04:09 1.7M
20260417T00Z_MSC_GDPS_SpecificHumidity_IsbL-0800_LatLon0.15_PT054H.grib2 2026-04-17 04:09 1.8M
20260417T00Z_MSC_GDPS_SpecificHumidity_IsbL-0850_LatLon0.15_PT054H.grib2 2026-04-17 04:09 1.9M
20260417T00Z_MSC_GDPS_SpecificHumidity_IsbL-0875_LatLon0.15_PT054H.grib2 2026-04-17 04:09 1.9M
20260417T00Z_MSC_GDPS_SpecificHumidity_IsbL-0900_LatLon0.15_PT054H.grib2 2026-04-17 04:09 1.9M
20260417T00Z_MSC_GDPS_SpecificHumidity_IsbL-0925_LatLon0.15_PT054H.grib2 2026-04-17 04:09 1.6M
20260417T00Z_MSC_GDPS_SpecificHumidity_IsbL-0950_LatLon0.15_PT054H.grib2 2026-04-17 04:09 1.5M
20260417T00Z_MSC_GDPS_SpecificHumidity_IsbL-0970_LatLon0.15_PT054H.grib2 2026-04-17 04:09 1.5M
20260417T00Z_MSC_GDPS_SpecificHumidity_IsbL-0985_LatLon0.15_PT054H.grib2 2026-04-17 04:09 1.5M
20260417T00Z_MSC_GDPS_SpecificHumidity_IsbL-1000_LatLon0.15_PT054H.grib2 2026-04-17 04:09 1.5M
20260417T00Z_MSC_GDPS_SpecificHumidity_IsbL-1015_LatLon0.15_PT054H.grib2 2026-04-17 04:09 1.4M
20260417T00Z_MSC_GDPS_SpecificHumidity_Sfc_LatLon0.15_PT054H.grib2 2026-04-17 04:09 665K
20260417T00Z_MSC_GDPS_Thickness_IsbL-0850to0700_LatLon0.15_PT054H.grib2 2026-04-17 04:09 468K
20260417T00Z_MSC_GDPS_Thickness_IsbL-1000to0500_LatLon0.15_PT054H.grib2 2026-04-17 04:09 376K
20260417T00Z_MSC_GDPS_Thickness_IsbL-1000to0850_LatLon0.15_PT054H.grib2 2026-04-17 04:09 489K
20260417T00Z_MSC_GDPS_TotalCloudCover_Sfc_LatLon0.15_PT054H.grib2 2026-04-17 04:09 815K
20260417T00Z_MSC_GDPS_TotalTotalsIndex_Sfc_LatLon0.15_PT054H.grib2 2026-04-17 04:09 6.2M
20260417T00Z_MSC_GDPS_UVIndex-ClearSky_Sfc_LatLon0.15_PT054H.grib2 2026-04-17 04:50 1.0M
20260417T00Z_MSC_GDPS_UVIndex_Sfc_LatLon0.15_PT054H.grib2 2026-04-17 04:50 1.4M
20260417T00Z_MSC_GDPS_UpwardLongwaveRadiationFlux_NTAtm_LatLon0.15_PT054H.grib2 2026-04-17 04:09 824K
20260417T00Z_MSC_GDPS_VerticalVelocity_IsbL-0200_LatLon0.15_PT054H.grib2 2026-04-17 04:09 925K
20260417T00Z_MSC_GDPS_VerticalVelocity_IsbL-0250_LatLon0.15_PT054H.grib2 2026-04-17 04:09 1.0M
20260417T00Z_MSC_GDPS_VerticalVelocity_IsbL-0500_LatLon0.15_PT054H.grib2 2026-04-17 04:09 1.3M
20260417T00Z_MSC_GDPS_VerticalVelocity_IsbL-0600_LatLon0.15_PT054H.grib2 2026-04-17 04:09 1.3M
20260417T00Z_MSC_GDPS_VerticalVelocity_IsbL-0700_LatLon0.15_PT054H.grib2 2026-04-17 04:09 1.4M
20260417T00Z_MSC_GDPS_VerticalVelocity_IsbL-0850_LatLon0.15_PT054H.grib2 2026-04-17 04:09 1.3M
20260417T00Z_MSC_GDPS_WindChill_Sfc_LatLon0.15_PT054H.grib2 2026-04-17 04:09 5.3M
20260417T00Z_MSC_GDPS_WindDir_AGL-10m_LatLon0.15_PT054H.grib2 2026-04-17 04:09 1.3M
20260417T00Z_MSC_GDPS_WindDir_AGL-120m_LatLon0.15_PT054H.grib2 2026-04-17 04:09 1.4M
20260417T00Z_MSC_GDPS_WindDir_AGL-40m_LatLon0.15_PT054H.grib2 2026-04-17 04:09 1.4M
20260417T00Z_MSC_GDPS_WindDir_AGL-80m_LatLon0.15_PT054H.grib2 2026-04-17 04:09 1.4M
20260417T00Z_MSC_GDPS_WindDir_IsbL-0001_LatLon0.15_PT054H.grib2 2026-04-17 04:09 645K
20260417T00Z_MSC_GDPS_WindDir_IsbL-0005_LatLon0.15_PT054H.grib2 2026-04-17 04:09 819K
20260417T00Z_MSC_GDPS_WindDir_IsbL-0010_LatLon0.15_PT054H.grib2 2026-04-17 04:09 859K
20260417T00Z_MSC_GDPS_WindDir_IsbL-0020_LatLon0.15_PT054H.grib2 2026-04-17 04:09 921K
20260417T00Z_MSC_GDPS_WindDir_IsbL-0030_LatLon0.15_PT054H.grib2 2026-04-17 04:09 896K
20260417T00Z_MSC_GDPS_WindDir_IsbL-0050_LatLon0.15_PT054H.grib2 2026-04-17 04:09 950K
20260417T00Z_MSC_GDPS_WindDir_IsbL-0100_LatLon0.15_PT054H.grib2 2026-04-17 04:09 1.0M
20260417T00Z_MSC_GDPS_WindDir_IsbL-0150_LatLon0.15_PT054H.grib2 2026-04-17 04:09 1.0M
20260417T00Z_MSC_GDPS_WindDir_IsbL-0175_LatLon0.15_PT054H.grib2 2026-04-17 04:09 1.1M
20260417T00Z_MSC_GDPS_WindDir_IsbL-0200_LatLon0.15_PT054H.grib2 2026-04-17 04:09 1.1M
20260417T00Z_MSC_GDPS_WindDir_IsbL-0225_LatLon0.15_PT054H.grib2 2026-04-17 04:09 1.1M
20260417T00Z_MSC_GDPS_WindDir_IsbL-0250_LatLon0.15_PT054H.grib2 2026-04-17 04:09 1.1M
20260417T00Z_MSC_GDPS_WindDir_IsbL-0275_LatLon0.15_PT054H.grib2 2026-04-17 04:09 1.2M
20260417T00Z_MSC_GDPS_WindDir_IsbL-0300_LatLon0.15_PT054H.grib2 2026-04-17 04:09 1.2M
20260417T00Z_MSC_GDPS_WindDir_IsbL-0350_LatLon0.15_PT054H.grib2 2026-04-17 04:09 1.2M
20260417T00Z_MSC_GDPS_WindDir_IsbL-0400_LatLon0.15_PT054H.grib2 2026-04-17 04:09 1.2M
20260417T00Z_MSC_GDPS_WindDir_IsbL-0450_LatLon0.15_PT054H.grib2 2026-04-17 04:09 1.3M
20260417T00Z_MSC_GDPS_WindDir_IsbL-0500_LatLon0.15_PT054H.grib2 2026-04-17 04:09 1.3M
20260417T00Z_MSC_GDPS_WindDir_IsbL-0550_LatLon0.15_PT054H.grib2 2026-04-17 04:09 1.4M
20260417T00Z_MSC_GDPS_WindDir_IsbL-0600_LatLon0.15_PT054H.grib2 2026-04-17 04:09 1.4M
20260417T00Z_MSC_GDPS_WindDir_IsbL-0650_LatLon0.15_PT054H.grib2 2026-04-17 04:09 1.5M
20260417T00Z_MSC_GDPS_WindDir_IsbL-0700_LatLon0.15_PT054H.grib2 2026-04-17 04:09 1.6M
20260417T00Z_MSC_GDPS_WindDir_IsbL-0750_LatLon0.15_PT054H.grib2 2026-04-17 04:09 1.7M
20260417T00Z_MSC_GDPS_WindDir_IsbL-0800_LatLon0.15_PT054H.grib2 2026-04-17 04:09 1.8M
20260417T00Z_MSC_GDPS_WindDir_IsbL-0850_LatLon0.15_PT054H.grib2 2026-04-17 04:09 1.9M
20260417T00Z_MSC_GDPS_WindDir_IsbL-0875_LatLon0.15_PT054H.grib2 2026-04-17 04:09 2.0M
20260417T00Z_MSC_GDPS_WindDir_IsbL-0900_LatLon0.15_PT054H.grib2 2026-04-17 04:09 2.0M
20260417T00Z_MSC_GDPS_WindDir_IsbL-0925_LatLon0.15_PT054H.grib2 2026-04-17 04:09 2.0M
20260417T00Z_MSC_GDPS_WindDir_IsbL-0950_LatLon0.15_PT054H.grib2 2026-04-17 04:09 2.0M
20260417T00Z_MSC_GDPS_WindDir_IsbL-0970_LatLon0.15_PT054H.grib2 2026-04-17 04:09 2.0M
20260417T00Z_MSC_GDPS_WindDir_IsbL-0985_LatLon0.15_PT054H.grib2 2026-04-17 04:09 2.0M
20260417T00Z_MSC_GDPS_WindDir_IsbL-1000_LatLon0.15_PT054H.grib2 2026-04-17 04:09 2.1M
20260417T00Z_MSC_GDPS_WindDir_IsbL-1015_LatLon0.15_PT054H.grib2 2026-04-17 04:09 2.1M
20260417T00Z_MSC_GDPS_WindGust-Max_AGL-10m_LatLon0.15_PT054H.grib2 2026-04-17 04:09 2.3M
20260417T00Z_MSC_GDPS_WindGust-Min_AGL-10m_LatLon0.15_PT054H.grib2 2026-04-17 04:09 2.2M
20260417T00Z_MSC_GDPS_WindGust_AGL-10m_LatLon0.15_PT054H.grib2 2026-04-17 04:09 2.2M
20260417T00Z_MSC_GDPS_WindSpeed_AGL-10m_LatLon0.15_PT054H.grib2 2026-04-17 04:09 1.1M
20260417T00Z_MSC_GDPS_WindSpeed_AGL-120m_LatLon0.15_PT054H.grib2 2026-04-17 04:09 1.2M
20260417T00Z_MSC_GDPS_WindSpeed_AGL-40m_LatLon0.15_PT054H.grib2 2026-04-17 04:09 1.2M
20260417T00Z_MSC_GDPS_WindSpeed_AGL-80m_LatLon0.15_PT054H.grib2 2026-04-17 04:09 1.2M
20260417T00Z_MSC_GDPS_WindSpeed_IsbL-0001_LatLon0.15_PT054H.grib2 2026-04-17 04:09 637K
20260417T00Z_MSC_GDPS_WindSpeed_IsbL-0005_LatLon0.15_PT054H.grib2 2026-04-17 04:09 692K
20260417T00Z_MSC_GDPS_WindSpeed_IsbL-0010_LatLon0.15_PT054H.grib2 2026-04-17 04:09 630K
20260417T00Z_MSC_GDPS_WindSpeed_IsbL-0020_LatLon0.15_PT054H.grib2 2026-04-17 04:09 671K
20260417T00Z_MSC_GDPS_WindSpeed_IsbL-0030_LatLon0.15_PT054H.grib2 2026-04-17 04:09 858K
20260417T00Z_MSC_GDPS_WindSpeed_IsbL-0050_LatLon0.15_PT054H.grib2 2026-04-17 04:09 916K
20260417T00Z_MSC_GDPS_WindSpeed_IsbL-0100_LatLon0.15_PT054H.grib2 2026-04-17 04:09 1.1M
20260417T00Z_MSC_GDPS_WindSpeed_IsbL-0150_LatLon0.15_PT054H.grib2 2026-04-17 04:09 1.0M
20260417T00Z_MSC_GDPS_WindSpeed_IsbL-0175_LatLon0.15_PT054H.grib2 2026-04-17 04:09 1.0M
20260417T00Z_MSC_GDPS_WindSpeed_IsbL-0200_LatLon0.15_PT054H.grib2 2026-04-17 04:09 1.1M
20260417T00Z_MSC_GDPS_WindSpeed_IsbL-0225_LatLon0.15_PT054H.grib2 2026-04-17 04:09 1.1M
20260417T00Z_MSC_GDPS_WindSpeed_IsbL-0250_LatLon0.15_PT054H.grib2 2026-04-17 04:09 1.1M
20260417T00Z_MSC_GDPS_WindSpeed_IsbL-0275_LatLon0.15_PT054H.grib2 2026-04-17 04:09 1.1M
20260417T00Z_MSC_GDPS_WindSpeed_IsbL-0300_LatLon0.15_PT054H.grib2 2026-04-17 04:09 1.1M
20260417T00Z_MSC_GDPS_WindSpeed_IsbL-0350_LatLon0.15_PT054H.grib2 2026-04-17 04:09 1.1M
20260417T00Z_MSC_GDPS_WindSpeed_IsbL-0400_LatLon0.15_PT054H.grib2 2026-04-17 04:09 1.1M
20260417T00Z_MSC_GDPS_WindSpeed_IsbL-0450_LatLon0.15_PT054H.grib2 2026-04-17 04:09 1.1M
20260417T00Z_MSC_GDPS_WindSpeed_IsbL-0500_LatLon0.15_PT054H.grib2 2026-04-17 04:09 1.1M
20260417T00Z_MSC_GDPS_WindSpeed_IsbL-0550_LatLon0.15_PT054H.grib2 2026-04-17 04:09 1.1M
20260417T00Z_MSC_GDPS_WindSpeed_IsbL-0600_LatLon0.15_PT054H.grib2 2026-04-17 04:09 1.4M
20260417T00Z_MSC_GDPS_WindSpeed_IsbL-0650_LatLon0.15_PT054H.grib2 2026-04-17 04:09 1.4M
20260417T00Z_MSC_GDPS_WindSpeed_IsbL-0700_LatLon0.15_PT054H.grib2 2026-04-17 04:09 1.5M
20260417T00Z_MSC_GDPS_WindSpeed_IsbL-0750_LatLon0.15_PT054H.grib2 2026-04-17 04:09 1.6M
20260417T00Z_MSC_GDPS_WindSpeed_IsbL-0800_LatLon0.15_PT054H.grib2 2026-04-17 04:09 1.7M
20260417T00Z_MSC_GDPS_WindSpeed_IsbL-0850_LatLon0.15_PT054H.grib2 2026-04-17 04:09 1.8M
20260417T00Z_MSC_GDPS_WindSpeed_IsbL-0875_LatLon0.15_PT054H.grib2 2026-04-17 04:09 1.9M
20260417T00Z_MSC_GDPS_WindSpeed_IsbL-0900_LatLon0.15_PT054H.grib2 2026-04-17 04:09 1.9M
20260417T00Z_MSC_GDPS_WindSpeed_IsbL-0925_LatLon0.15_PT054H.grib2 2026-04-17 04:09 1.9M
20260417T00Z_MSC_GDPS_WindSpeed_IsbL-0950_LatLon0.15_PT054H.grib2 2026-04-17 04:09 1.9M
20260417T00Z_MSC_GDPS_WindSpeed_IsbL-0970_LatLon0.15_PT054H.grib2 2026-04-17 04:09 1.9M
20260417T00Z_MSC_GDPS_WindSpeed_IsbL-0985_LatLon0.15_PT054H.grib2 2026-04-17 04:09 1.8M
20260417T00Z_MSC_GDPS_WindSpeed_IsbL-1000_LatLon0.15_PT054H.grib2 2026-04-17 04:09 1.8M
20260417T00Z_MSC_GDPS_WindSpeed_IsbL-1015_LatLon0.15_PT054H.grib2 2026-04-17 04:09 1.8M
20260417T00Z_MSC_GDPS_WindU_AGL-10m_LatLon0.15_PT054H.grib2 2026-04-17 04:09 1.3M
20260417T00Z_MSC_GDPS_WindU_AGL-120m_LatLon0.15_PT054H.grib2 2026-04-17 04:09 961K
20260417T00Z_MSC_GDPS_WindU_AGL-40m_LatLon0.15_PT054H.grib2 2026-04-17 04:09 956K
20260417T00Z_MSC_GDPS_WindU_AGL-80m_LatLon0.15_PT054H.grib2 2026-04-17 04:09 961K
20260417T00Z_MSC_GDPS_WindU_IsbL-0001_LatLon0.15_PT054H.grib2 2026-04-17 04:09 638K
20260417T00Z_MSC_GDPS_WindU_IsbL-0005_LatLon0.15_PT054H.grib2 2026-04-17 04:09 694K
20260417T00Z_MSC_GDPS_WindU_IsbL-0010_LatLon0.15_PT054H.grib2 2026-04-17 04:09 706K
20260417T00Z_MSC_GDPS_WindU_IsbL-0020_LatLon0.15_PT054H.grib2 2026-04-17 04:09 739K
20260417T00Z_MSC_GDPS_WindU_IsbL-0030_LatLon0.15_PT054H.grib2 2026-04-17 04:09 737K
20260417T00Z_MSC_GDPS_WindU_IsbL-0050_LatLon0.15_PT054H.grib2 2026-04-17 04:09 705K
20260417T00Z_MSC_GDPS_WindU_IsbL-0100_LatLon0.15_PT054H.grib2 2026-04-17 04:09 921K
20260417T00Z_MSC_GDPS_WindU_IsbL-0150_LatLon0.15_PT054H.grib2 2026-04-17 04:09 1.0M
20260417T00Z_MSC_GDPS_WindU_IsbL-0175_LatLon0.15_PT054H.grib2 2026-04-17 04:09 1.0M
20260417T00Z_MSC_GDPS_WindU_IsbL-0200_LatLon0.15_PT054H.grib2 2026-04-17 04:09 1.0M
20260417T00Z_MSC_GDPS_WindU_IsbL-0225_LatLon0.15_PT054H.grib2 2026-04-17 04:09 1.1M
20260417T00Z_MSC_GDPS_WindU_IsbL-0250_LatLon0.15_PT054H.grib2 2026-04-17 04:09 850K
20260417T00Z_MSC_GDPS_WindU_IsbL-0275_LatLon0.15_PT054H.grib2 2026-04-17 04:09 874K
20260417T00Z_MSC_GDPS_WindU_IsbL-0300_LatLon0.15_PT054H.grib2 2026-04-17 04:09 865K
20260417T00Z_MSC_GDPS_WindU_IsbL-0350_LatLon0.15_PT054H.grib2 2026-04-17 04:09 1.1M
20260417T00Z_MSC_GDPS_WindU_IsbL-0400_LatLon0.15_PT054H.grib2 2026-04-17 04:09 1.1M
20260417T00Z_MSC_GDPS_WindU_IsbL-0450_LatLon0.15_PT054H.grib2 2026-04-17 04:09 1.1M
20260417T00Z_MSC_GDPS_WindU_IsbL-0500_LatLon0.15_PT054H.grib2 2026-04-17 04:09 1.1M
20260417T00Z_MSC_GDPS_WindU_IsbL-0550_LatLon0.15_PT054H.grib2 2026-04-17 04:09 1.1M
20260417T00Z_MSC_GDPS_WindU_IsbL-0600_LatLon0.15_PT054H.grib2 2026-04-17 04:09 1.1M
20260417T00Z_MSC_GDPS_WindU_IsbL-0650_LatLon0.15_PT054H.grib2 2026-04-17 04:09 1.2M
20260417T00Z_MSC_GDPS_WindU_IsbL-0700_LatLon0.15_PT054H.grib2 2026-04-17 04:09 1.2M
20260417T00Z_MSC_GDPS_WindU_IsbL-0750_LatLon0.15_PT054H.grib2 2026-04-17 04:09 1.3M
20260417T00Z_MSC_GDPS_WindU_IsbL-0800_LatLon0.15_PT054H.grib2 2026-04-17 04:09 1.3M
20260417T00Z_MSC_GDPS_WindU_IsbL-0850_LatLon0.15_PT054H.grib2 2026-04-17 04:09 1.4M
20260417T00Z_MSC_GDPS_WindU_IsbL-0875_LatLon0.15_PT054H.grib2 2026-04-17 04:09 1.4M
20260417T00Z_MSC_GDPS_WindU_IsbL-0900_LatLon0.15_PT054H.grib2 2026-04-17 04:09 1.4M
20260417T00Z_MSC_GDPS_WindU_IsbL-0925_LatLon0.15_PT054H.grib2 2026-04-17 04:09 1.4M
20260417T00Z_MSC_GDPS_WindU_IsbL-0950_LatLon0.15_PT054H.grib2 2026-04-17 04:09 1.4M
20260417T00Z_MSC_GDPS_WindU_IsbL-0970_LatLon0.15_PT054H.grib2 2026-04-17 04:09 1.4M
20260417T00Z_MSC_GDPS_WindU_IsbL-0985_LatLon0.15_PT054H.grib2 2026-04-17 04:09 1.4M
20260417T00Z_MSC_GDPS_WindU_IsbL-1000_LatLon0.15_PT054H.grib2 2026-04-17 04:09 1.4M
20260417T00Z_MSC_GDPS_WindU_IsbL-1015_LatLon0.15_PT054H.grib2 2026-04-17 04:09 1.3M
20260417T00Z_MSC_GDPS_WindV_AGL-10m_LatLon0.15_PT054H.grib2 2026-04-17 04:09 1.6M
20260417T00Z_MSC_GDPS_WindV_AGL-120m_LatLon0.15_PT054H.grib2 2026-04-17 04:09 966K
20260417T00Z_MSC_GDPS_WindV_AGL-40m_LatLon0.15_PT054H.grib2 2026-04-17 04:09 1.2M
20260417T00Z_MSC_GDPS_WindV_AGL-80m_LatLon0.15_PT054H.grib2 2026-04-17 04:09 966K
20260417T00Z_MSC_GDPS_WindV_IsbL-0001_LatLon0.15_PT054H.grib2 2026-04-17 04:09 697K
20260417T00Z_MSC_GDPS_WindV_IsbL-0005_LatLon0.15_PT054H.grib2 2026-04-17 04:09 782K
20260417T00Z_MSC_GDPS_WindV_IsbL-0010_LatLon0.15_PT054H.grib2 2026-04-17 04:09 629K
20260417T00Z_MSC_GDPS_WindV_IsbL-0020_LatLon0.15_PT054H.grib2 2026-04-17 04:09 854K
20260417T00Z_MSC_GDPS_WindV_IsbL-0030_LatLon0.15_PT054H.grib2 2026-04-17 04:09 853K
20260417T00Z_MSC_GDPS_WindV_IsbL-0050_LatLon0.15_PT054H.grib2 2026-04-17 04:09 903K
20260417T00Z_MSC_GDPS_WindV_IsbL-0100_LatLon0.15_PT054H.grib2 2026-04-17 04:09 844K
20260417T00Z_MSC_GDPS_WindV_IsbL-0150_LatLon0.15_PT054H.grib2 2026-04-17 04:09 1.0M
20260417T00Z_MSC_GDPS_WindV_IsbL-0175_LatLon0.15_PT054H.grib2 2026-04-17 04:09 1.0M
20260417T00Z_MSC_GDPS_WindV_IsbL-0200_LatLon0.15_PT054H.grib2 2026-04-17 04:09 839K
20260417T00Z_MSC_GDPS_WindV_IsbL-0225_LatLon0.15_PT054H.grib2 2026-04-17 04:09 904K
20260417T00Z_MSC_GDPS_WindV_IsbL-0250_LatLon0.15_PT054H.grib2 2026-04-17 04:09 903K
20260417T00Z_MSC_GDPS_WindV_IsbL-0275_LatLon0.15_PT054H.grib2 2026-04-17 04:09 927K
20260417T00Z_MSC_GDPS_WindV_IsbL-0300_LatLon0.15_PT054H.grib2 2026-04-17 04:09 919K
20260417T00Z_MSC_GDPS_WindV_IsbL-0350_LatLon0.15_PT054H.grib2 2026-04-17 04:09 934K
20260417T00Z_MSC_GDPS_WindV_IsbL-0400_LatLon0.15_PT054H.grib2 2026-04-17 04:09 875K
20260417T00Z_MSC_GDPS_WindV_IsbL-0450_LatLon0.15_PT054H.grib2 2026-04-17 04:09 874K
20260417T00Z_MSC_GDPS_WindV_IsbL-0500_LatLon0.15_PT054H.grib2 2026-04-17 04:09 1.1M
20260417T00Z_MSC_GDPS_WindV_IsbL-0550_LatLon0.15_PT054H.grib2 2026-04-17 04:09 1.1M
20260417T00Z_MSC_GDPS_WindV_IsbL-0600_LatLon0.15_PT054H.grib2 2026-04-17 04:09 1.1M
20260417T00Z_MSC_GDPS_WindV_IsbL-0650_LatLon0.15_PT054H.grib2 2026-04-17 04:09 1.2M
20260417T00Z_MSC_GDPS_WindV_IsbL-0700_LatLon0.15_PT054H.grib2 2026-04-17 04:09 1.2M
20260417T00Z_MSC_GDPS_WindV_IsbL-0750_LatLon0.15_PT054H.grib2 2026-04-17 04:09 1.2M
20260417T00Z_MSC_GDPS_WindV_IsbL-0800_LatLon0.15_PT054H.grib2 2026-04-17 04:09 1.3M
20260417T00Z_MSC_GDPS_WindV_IsbL-0850_LatLon0.15_PT054H.grib2 2026-04-17 04:09 1.4M
20260417T00Z_MSC_GDPS_WindV_IsbL-0875_LatLon0.15_PT054H.grib2 2026-04-17 04:09 1.4M
20260417T00Z_MSC_GDPS_WindV_IsbL-0900_LatLon0.15_PT054H.grib2 2026-04-17 04:09 1.4M
20260417T00Z_MSC_GDPS_WindV_IsbL-0925_LatLon0.15_PT054H.grib2 2026-04-17 04:09 1.4M
20260417T00Z_MSC_GDPS_WindV_IsbL-0950_LatLon0.15_PT054H.grib2 2026-04-17 04:09 1.4M
20260417T00Z_MSC_GDPS_WindV_IsbL-0970_LatLon0.15_PT054H.grib2 2026-04-17 04:09 1.4M
20260417T00Z_MSC_GDPS_WindV_IsbL-0985_LatLon0.15_PT054H.grib2 2026-04-17 04:09 1.4M
20260417T00Z_MSC_GDPS_WindV_IsbL-1000_LatLon0.15_PT054H.grib2 2026-04-17 04:09 1.7M
20260417T00Z_MSC_GDPS_WindV_IsbL-1015_LatLon0.15_PT054H.grib2 2026-04-17 04:09 1.6M